[[{"header":{"parameterUnit":"m.s-1","parameterCategory":1,"la1":30.2991,"la2":30.254,"lo1":-89.0895,"lo2":-89.0444,"dy":0.0017,"dx":0.0017,"nx":28,"ny":28,"refTime":"2024-07-26T09:00:00:Z","depth":0,"parameterNumber":2,"parameterNumberName":"U-component_of_WINDS"},"data":[0,0,0,0,0,0,0,0,0,0,0,0,0,0,0,0,0,0,0,0,0,0,0,0,0,0,0,0,0,0,0,0,0,0,0,0,0,0,0,0,0,0,0,0,0,0,0,0,0,0,0,0,0,0,0,0,0,0,-1.2439,-1.2438,0,-1.2358,-1.2357,-1.2356,-1.2305,-1.2304,-1.2304,-1.2304,-1.2221,-1.2219,-1.2217,0,0,0,0,0,0,0,0,0,0,0,0,0,-1.2552,-1.255,-1.2439,-1.2438,-1.2437,-1.2358,-1.2357,-1.2356,-1.2305,-1.2304,-1.2304,-1.2304,-1.2222,-1.2219,-1.2217,0,0,0,0,0,0,0,0,0,0,0,0,0,-1.249,-1.255,-1.2439,-1.2402,-1.2398,-1.2358,-1.2357,-1.2355,-1.2305,-1.2304,-1.2304,-1.2303,-1.2222,-1.2219,-1.2217,-1.2208,0,0,-1.2208,-1.2207,0,0,0,0,0,0,0,0,-1.2494,-1.2486,-1.2409,-1.2405,-1.24,-1.2341,-1.2366,-1.2306,-1.2305,-1.234,-1.2304,-1.2303,-1.2261,-1.2255,-1.2241,-1.2204,-1.22,-1.2208,-1.2206,-1.2205,-1.2204,0,0,0,0,0,0,0,-1.2498,-1.2489,-1.2407,-1.2408,-1.2402,-1.239,-1.2381,-1.2355,-1.2304,-1.2337,-1.2333,-1.2324,-1.2259,-1.2244,-1.2239,-1.2199,-1.2208,-1.2205,-1.2203,-1.2202,-1.2152,-1.2152,0,0,0,0,0,0,-1.2508,-1.2493,-1.241,-1.2405,-1.2447,-1.2388,-1.2378,-1.236,-1.2304,-1.2295,-1.2325,-1.2322,-1.2249,-1.2242,-1.2235,-1.2222,-1.2205,-1.2202,-1.22,-1.2152,-1.2152,-1.2152,0,0,0,0,0,0,-1.2511,-1.2501,-1.2413,-1.2448,-1.2436,-1.2387,-1.2367,-1.2359,-1.2344,-1.2295,-1.2286,-1.2318,-1.2248,-1.2239,-1.2215,-1.2218,-1.2201,-1.2198,-1.2151,-1.2152,-1.2152,-1.2194,0,0,0,0,0,0,-1.2514,-1.2502,-1.2498,-1.2448,-1.2434,-1.2394,-1.2368,-1.2358,-1.2339,-1.2335,-1.2287,-1.2278,-1.2247,-1.222,-1.2212,-1.2214,-1.2196,-1.2151,-1.2151,-1.2152,-1.2192,-1.2196,-1.2199,0,0,0,0,0,-1.2518,-1.2513,-1.2498,-1.2488,-1.2427,-1.2394,-1.2386,-1.235,-1.2339,-1.2335,-1.2304,-1.228,-1.2219,-1.2218,-1.2209,-1.221,-1.215,-1.2151,-1.2152,-1.2191,-1.2195,-1.2199,0,0,0,0,0,0,-1.2564,-1.2506,-1.2488,-1.2467,-1.2436,-1.2385,-1.2378,-1.2356,-1.2328,-1.2325,-1.2282,-1.2272,-1.2252,-1.2228,-1.2228,-1.2199,-1.2182,-1.2181,-1.2214,-1.2219,-1.2222,-1.2228,-1.2193,0,0,0,0,0,-1.2572,-1.2549,-1.2499,-1.2485,-1.247,-1.2427,-1.2411,-1.2387,-1.2353,-1.234,-1.2306,-1.2275,-1.2249,-1.2232,-1.2206,-1.2189,-1.2178,-1.2185,-1.2189,-1.2192,-1.2192,-1.2182,-1.2185,-1.2155,-1.2155,-1.2155,0,0,-1.2587,-1.2553,-1.2541,-1.2493,-1.2466,-1.2444,-1.2417,-1.2394,-1.2378,-1.2336,-1.2311,-1.2286,-1.2248,-1.2228,-1.2217,-1.2208,-1.2198,-1.2193,-1.2196,-1.2194,-1.2183,-1.2186,-1.2189,-1.2156,-1.2156,-1.2156,0,0,-1.2604,-1.2575,-1.256,-1.2534,-1.2494,-1.2466,-1.2462,-1.2416,-1.2397,-1.2372,-1.234,-1.2321,-1.2276,-1.2251,-1.2232,-1.2241,-1.2218,-1.2234,-1.2252,-1.2243,-1.2245,-1.2247,-1.2251,-1.2253,-1.2234,-1.2234,-1.2234,0,-1.2628,-1.2593,-1.2556,-1.2535,-1.2516,-1.2478,-1.2463,-1.2439,-1.2393,-1.238,-1.237,-1.2315,-1.2287,-1.226,-1.2263,-1.2249,-1.2244,-1.2239,-1.2248,-1.225,-1.2251,-1.2254,-1.2255,-1.2236,-1.2236,-1.2236,-1.2235,0,-1.2625,-1.2602,-1.2595,-1.2551,-1.253,-1.2513,-1.2473,-1.2458,-1.2435,-1.2408,-1.2383,-1.2349,-1.2314,-1.2307,-1.2284,-1.2277,-1.2273,-1.2256,-1.2238,-1.2256,-1.2258,-1.2259,-1.2239,-1.2238,-1.2238,-1.2237,0,0,-1.2668,-1.2604,-1.2602,-1.2582,-1.2535,-1.2516,-1.2498,-1.2465,-1.2452,-1.2422,-1.2406,-1.237,-1.2355,-1.2333,-1.2308,-1.2301,-1.2311,-1.2285,-1.2283,-1.2291,-1.2302,-1.2314,-1.2316,-1.2296,-1.2296,-1.2296,-1.2305,0,-1.2677,-1.2641,-1.2607,-1.2584,-1.2562,-1.2527,-1.251,-1.2481,-1.2456,-1.2434,-1.2406,-1.2382,-1.2363,-1.235,-1.2341,-1.2311,-1.2312,-1.231,-1.228,-1.228,-1.2291,-1.2317,-1.233,-1.234,-1.2305,-1.2305,-1.2306,0,-1.2683,-1.2655,-1.2629,-1.2586,-1.2575,-1.2561,-1.2529,-1.2508,-1.2474,-1.2457,-1.2434,-1.2408,-1.2387,-1.2373,-1.2345,-1.2344,-1.233,-1.2314,-1.2314,-1.2309,-1.2293,-1.2313,-1.2342,-1.2344,-1.2306,-1.2306,-1.2306,0,-1.2717,-1.2672,-1.2651,-1.2635,-1.2584,-1.2575,-1.2553,-1.2519,-1.2501,-1.2473,-1.2461,-1.2432,-1.2415,-1.2393,-1.236,-1.2352,-1.2335,-1.2318,-1.232,-1.2321,-1.2318,-1.2318,-1.2345,-1.2309,-1.2309,-1.2309,-1.2309,0,-1.2731,-1.2717,-1.2665,-1.2652,-1.2636,-1.2598,-1.2583,-1.2558,-1.2528,-1.251,-1.2478,-1.2462,-1.2419,-1.2399,-1.2373,-1.2353,-1.2346,-1.2332,-1.2325,-1.2334,-1.2336,-1.2324,-1.2323,-1.231,-1.231,-1.231,-1.231,0,-1.2765,-1.273,-1.2705,-1.2659,-1.2647,-1.2637,-1.2598,-1.2584,-1.2558,-1.2536,-1.2528,-1.2487,-1.2461,-1.2426,-1.2389,-1.2372,-1.2356,-1.2346,-1.2368,-1.2364,-1.2368,-1.2368,-1.2388,-1.2388,-1.2353,-1.2354,-1.2354,0,-1.2777,-1.2765,-1.2718,-1.2703,-1.2683,-1.266,-1.2642,-1.2605,-1.2588,-1.2549,-1.254,-1.2512,-1.2487,-1.2448,-1.2415,-1.2387,-1.2375,-1.2384,-1.2371,-1.2381,-1.2376,-1.2377,-1.2376,-1.2387,-1.2388,-1.2388,-1.2389,0,-1.28,-1.2784,-1.2759,-1.2728,-1.2708,-1.2682,-1.2655,-1.2645,-1.2603,-1.2585,-1.2558,-1.2539,-1.2502,-1.2475,-1.2443,-1.2421,-1.2398,-1.2393,-1.2392,-1.2402,-1.2415,-1.2408,-1.2376,-1.2393,-1.2392,-1.2392,-1.2392,-1.2392,-1.2823,-1.2811,-1.2776,-1.275,-1.2726,-1.2702,-1.2687,-1.2659,-1.2636,-1.2602,-1.2582,-1.2556,-1.2524,-1.2478,-1.2458,-1.2438,-1.2429,-1.2427,-1.2427,-1.2427,-1.2431,-1.2419,-1.2432,-1.2432,-1.2432,-1.2432,-1.2432,0,-1.2845,-1.2821,-1.2798,-1.2761,-1.274,-1.2721,-1.269,-1.2675,-1.2652,-1.2624,-1.26,-1.257,-1.2544,-1.2509,-1.2481,-1.2471,-1.246,-1.2465,-1.2465,-1.2461,-1.244,-1.2444,-1.2474,-1.2474,-1.2474,-1.2474,-1.2474,-1.2474,-1.2854,-1.2833,-1.2813,-1.278,-1.2756,-1.2731,-1.2715,-1.2693,-1.267,-1.2637,-1.2615,-1.2593,-1.2562,-1.2531,-1.2507,-1.2497,-1.2488,-1.2497,-1.2484,-1.2466,-1.2462,-1.2458,-1.2461,-1.2495,-1.2495,-1.2506,-1.2506,-1.2506]},{"header":{"parameterUnit":"m.s-1","parameterCategory":1,"la1":30.2991,"la2":30.254,"lo1":-89.0895,"lo2":-89.0444,"dy":0.0017,"dx":0.0017,"nx":28,"ny":28,"refTime":"2024-07-26T09:00:00:Z","depth":0,"parameterNumber":3,"parameterNumberName":"V-component_of_WINDS"},"data":[0,0,0,0,0,0,0,0,0,0,0,0,0,0,0,0,0,0,0,0,0,0,0,0,0,0,0,0,0,0,0,0,0,0,0,0,0,0,0,0,0,0,0,0,0,0,0,0,0,0,0,0,0,0,0,0,0,0,3.7382,3.7383,0,3.745,3.7451,3.7452,3.7444,3.7443,3.7442,3.7441,3.7509,3.7512,3.7515,0,0,0,0,0,0,0,0,0,0,0,0,0,3.7243,3.7246,3.7382,3.7383,3.7384,3.745,3.7451,3.7452,3.7444,3.7443,3.7441,3.744,3.7508,3.7511,3.7515,0,0,0,0,0,0,0,0,0,0,0,0,0,3.7307,3.7247,3.7382,3.7388,3.7389,3.745,3.7451,3.7452,3.7444,3.7443,3.7441,3.744,3.7507,3.7511,3.7515,3.7574,0,0,3.7528,3.753,0,0,0,0,0,0,0,0,3.7303,3.7312,3.7386,3.7387,3.7389,3.7437,3.7427,3.7493,3.7445,3.7423,3.7441,3.7439,3.7486,3.7492,3.7508,3.7577,3.758,3.7529,3.7531,3.7533,3.7534,0,0,0,0,0,0,0,3.7299,3.7309,3.7409,3.7387,3.7389,3.7387,3.7394,3.744,3.7463,3.7425,3.7425,3.7433,3.7487,3.7504,3.751,3.7581,3.7529,3.7532,3.7535,3.7537,3.7702,3.7704,0,0,0,0,0,0,3.7293,3.7305,3.7407,3.7411,3.7341,3.739,3.7398,3.7423,3.7462,3.7467,3.7434,3.7432,3.7498,3.7505,3.7512,3.7584,3.7533,3.7537,3.754,3.77,3.7703,3.7705,0,0,0,0,0,0,3.729,3.7302,3.7404,3.7358,3.7371,3.7395,3.7422,3.7425,3.7443,3.7469,3.7473,3.7448,3.7497,3.7506,3.7559,3.7586,3.7539,3.7543,3.7698,3.7701,3.7704,3.7728,0,0,0,0,0,0,3.7286,3.7301,3.7324,3.7359,3.7373,3.745,3.7424,3.7428,3.745,3.7449,3.7484,3.7488,3.7496,3.7553,3.7563,3.7591,3.7546,3.7696,3.77,3.7703,3.7725,3.7731,3.7737,0,0,0,0,0,3.7281,3.7328,3.7325,3.7338,3.7402,3.7451,3.746,3.7469,3.7453,3.7476,3.7493,3.7487,3.7582,3.7558,3.757,3.76,3.7694,3.7699,3.7703,3.7722,3.773,3.7737,0,0,0,0,0,0,3.7295,3.7333,3.733,3.7389,3.7417,3.745,3.7479,3.7477,3.751,3.7507,3.7517,3.7525,3.7578,3.7594,3.7567,3.7659,3.7636,3.7642,3.7647,3.7654,3.766,3.7655,3.755,0,0,0,0,0,3.7306,3.7343,3.7373,3.7422,3.7436,3.7456,3.7477,3.7482,3.7511,3.7523,3.7544,3.7572,3.7609,3.7632,3.7667,3.7727,3.7735,3.7754,3.7759,3.7764,3.777,3.7803,3.7812,3.7718,3.7718,3.7718,0,0,3.7327,3.7351,3.7374,3.7426,3.7448,3.7486,3.7466,3.7507,3.7535,3.7529,3.7581,3.7597,3.7629,3.7686,3.7712,3.7701,3.7798,3.777,3.7773,3.7776,3.7809,3.7817,3.7825,3.7721,3.7721,3.772,0,0,3.7385,3.7407,3.7451,3.7474,3.7508,3.7521,3.7531,3.7564,3.7575,3.7627,3.7624,3.7657,3.7719,3.7743,3.7762,3.783,3.7825,3.784,3.7872,3.7904,3.7912,3.7918,3.7942,3.7951,3.7846,3.7846,3.7846,0,3.7406,3.7464,3.7473,3.7515,3.7538,3.7535,3.7579,3.7601,3.7645,3.766,3.7647,3.7726,3.7747,3.781,3.7826,3.7842,3.7855,3.7837,3.791,3.7916,3.7923,3.7946,3.7955,3.7848,3.7848,3.7847,3.7847,0,3.7489,3.7529,3.756,3.7603,3.7629,3.7672,3.7688,3.7713,3.7716,3.773,3.7782,3.7808,3.7848,3.7863,3.7866,3.7926,3.7918,3.7908,3.7884,3.7933,3.7955,3.7964,3.785,3.785,3.7849,3.7849,0,0,3.7558,3.7606,3.7617,3.7637,3.7675,3.7706,3.7748,3.7788,3.781,3.784,3.7876,3.7929,3.7919,3.7942,3.7947,3.7975,3.8027,3.7961,3.7962,3.7973,3.8096,3.8104,3.8114,3.8025,3.8026,3.8028,3.8093,0,3.762,3.7696,3.7706,3.7773,3.781,3.7808,3.7845,3.7872,3.7886,3.7919,3.7934,3.7972,3.7956,3.797,3.7998,3.8015,3.8052,3.801,3.8058,3.806,3.8051,3.8126,3.8135,3.8195,3.8102,3.8103,3.8104,0,3.7702,3.7736,3.7807,3.784,3.7856,3.7889,3.7927,3.7958,3.7989,3.7997,3.8023,3.8024,3.8068,3.8043,3.8103,3.8075,3.8095,3.8106,3.8109,3.8114,3.8085,3.8133,3.8215,3.8224,3.8118,3.8117,3.8116,0,3.7746,3.7809,3.7859,3.7876,3.7916,3.7939,3.7957,3.7986,3.8009,3.8042,3.8057,3.8094,3.8114,3.8143,3.8155,3.8135,3.8215,3.819,3.8223,3.8222,3.824,3.8238,3.8326,3.8252,3.8252,3.8252,3.8251,0,3.7815,3.7858,3.788,3.7911,3.796,3.797,3.8018,3.8035,3.8061,3.8095,3.8095,3.8127,3.814,3.8174,3.8184,3.8233,3.8242,3.8249,3.8251,3.825,3.8249,3.8263,3.8259,3.8254,3.8253,3.8253,3.8253,0,3.7872,3.7888,3.7943,3.7976,3.7986,3.802,3.8048,3.8079,3.8092,3.8136,3.8146,3.8168,3.8208,3.8222,3.8271,3.8277,3.8334,3.8332,3.8324,3.8324,3.8356,3.8353,3.8456,3.8471,3.8387,3.8387,3.8388,0,3.7915,3.7948,3.7985,3.8009,3.8027,3.8064,3.8089,3.81,3.8125,3.8163,3.8189,3.8229,3.8261,3.8326,3.8345,3.8382,3.8382,3.8415,3.8387,3.8385,3.8383,3.8381,3.8385,3.8421,3.8422,3.8422,3.8423,0,3.7989,3.7996,3.8031,3.8069,3.8098,3.8128,3.8157,3.8176,3.8192,3.822,3.8262,3.8287,3.8337,3.8377,3.8415,3.8433,3.8431,3.8431,3.8441,3.844,3.8434,3.8438,3.8339,3.8429,3.8428,3.8428,3.8428,3.8427,3.8041,3.8071,3.8102,3.8141,3.8164,3.8192,3.8222,3.824,3.8275,3.8317,3.8321,3.8366,3.8396,3.8447,3.8466,3.8501,3.8492,3.8506,3.8509,3.8513,3.8515,3.8428,3.8508,3.8508,3.8508,3.8508,3.8508,0,3.8116,3.8136,3.8172,3.8213,3.8244,3.8239,3.8272,3.8298,3.8337,3.8365,3.8398,3.8445,3.8484,3.8507,3.8546,3.8569,3.8569,3.8579,3.8578,3.8582,3.8521,3.8509,3.8579,3.8579,3.8579,3.8578,3.8578,3.8578,3.8159,3.8209,3.8219,3.8282,3.8301,3.8345,3.8364,3.839,3.8412,3.8466,3.8498,3.8513,3.8539,3.858,3.8615,3.8621,3.8635,3.8646,3.8651,3.8593,3.8586,3.8579,3.8568,3.8649,3.8649,3.8709,3.8709,3.871]}]]